Location: Newark
(23.1300°N, 73.6109°E)
Time: 04:24:47
(UTC+00:00)

Hubble Space Telescope - Pass Details

Date: 02 August 2021
Orbit: 535 x 539 km, 28.5° (Epoch: 19 September)

Event Time Altitude Azimuth Distance (km) Brightness Sun altitude
Rises 15:57:15 0° 280° (W) 2,668 5.3 -27.4°
Reaches altitude 10° 15:59:39 10° 271° (W) 1,776 4.1 -27.9°
Enters shadow 16:01:30 23° 254° (WSW) 1,172 2.8 -28.2°
